STARLINK-33828, 63493

Orbit data source: Space-Track

STARLINK-33828, 63493 is a payload satellite owned by SpaceX/Seattle (US) in LEO that was launched on Mon, 07 Apr 2025 UTC via an FALCON 9 launch vehicle from the Air Force Western Test Range (AFWTR). Payload-class satellites include a variety of spacecraft equipped with specific instruments for various scientific and technological missions. These include communications satellites like Starlink; space stations such as the ISS; scientific satellites like the Hubble; Earth observation satellites from companies like Planet Labs, Umbra, and HawkEye 360; GPS; miniature CubeSats for education and research; and military/defense satellites.

Loading next visibility...
Identifier
63493, 2025-071A
Orbit
LEO
Last TLE update
14 hours ago
Origin
Manufacturer
SpaceX/Seattle
Mission
Operational Commercial Communications
Bus & Motor
STARLINK V2MO, Unknown motor
Mass
575 kg wet, ~530 kg dry
Launch date (UTC)
2025-04-07 (3 months ago)
Launch vehicle
FALCON 9
Launch site
Air Force Western Test Range (AFWTR)
Object type
Payload
Rocket body
Debris
Shape & HBR
Box + 1 Pan, 29 m
Radar Cross Section
41.120 m², Large (>1 m²)

Expand to show TLE details & history

TLE from 14 hours ago
0 STARLINK-33828
1 63493U 25071A   25187.34886271  .00007125  00000-0  25247-3 0  9990
2 63493  53.1573 206.3204 0001060  86.8604 273.2518 15.30197508 15000
Epoch: 2025-07-06T08:22Z
TLE epoch observation values (Epoch: 2025-07-06T08:22:21.738Z)
Latitude
-0°
Longitude
156.15599°
Altitude
476.081 km
Speed
7.629 km/s
True Right ascension
13h 45m 16s
True Declination
0° 00' 00"
Sunlit
Object was in daylight at epoch
Visualization orbit readout
Latitude
-53.15163°
Longitude
69.62854°
Altitude
494.402 km
Speed
7.617 km/s
Apparent Right ascension
01h 56m 08s
Apparent Declination
-74° 52' 20"
Sunlit
Object is in daylight
Visualization observer readout
Local Sidereal Time
10:06:20
Azimuth
198.689° SSW
Elevation
-46.645°
Doppler factor
1
Orbital elements
Apogee altitude
476.206 km
Perigee altitude
474.753 km
Semi-major axis
6,853.616 km
Eccentricity
0.00011
Inclination
53.1573°
RAAN
206.3204°
Arg. of periapsis
86.8604°
True anomaly
Unknown
Mean anomaly
273.2518°
Eccentric anomaly
Unknown
Mean motion
3.82528 °/min
Orbital period
94.11 mins
BSTAR
0.00025247
Loading maneuver chart data...
Loading SW <> Apogee altitude chart data...
Loading historical data...
Loading historical data...
Loading historical data...
Loading historical data...
Loading historical data...
Loading historical data...
Loading historical data...

STARLINK-33828 Visibility forecast

Observer location: undefined°, undefined°

Span
Click to sort rows by Start time (UTC) header in descending order
Start Az.
Max El. time (UTC)
Max El. Az.
Max El.
End time (UTC)
End Az.
6 mins2025-07-07 03:20:15.516Z198.378° SSW2025-07-07 03:23:15.516Z138.24° SSE29.97°2025-07-07 03:26:15.516Z69.442° E
5 mins2025-07-07 04:59:15.516Z278.757° WNW2025-07-07 05:01:15.516Z327.788° NNW26.73°2025-07-07 05:04:15.516Z30.635° NE
5 mins2025-07-07 09:56:15.516Z338.077° N2025-07-07 09:58:15.516Z32.257° NE29.307°2025-07-07 10:01:15.516Z96.215° ESE
5 mins2025-07-07 11:34:15.516Z275.078° WNW2025-07-07 11:36:15.516Z222.698° SW26.248°2025-07-07 11:39:15.516Z166.807° S
|